[[{"header":{"parameterUnit":"m.s-1","parameterCategory":1,"la1":30.2991,"la2":30.254,"lo1":-89.0895,"lo2":-89.0444,"dy":0.0017,"dx":0.0017,"nx":28,"ny":28,"refTime":"2023-10-06T09:00:00:Z","depth":0,"parameterNumber":2,"parameterNumberName":"U-component_of_WINDS"},"data":[0,0,0,0,0,0,0,0,0,0,0,0,0,0,0,0,0,0,0,0,0,0,0,0,0,0,0,0,0,0,0,0,0,0,0,0,0,0,0,0,0,0,0,0,0,0,0,0,0,0,0,0,0,0,0,0,0,0,-1.3883,-1.3881,0,-1.3702,-1.37,-1.3698,-1.3587,-1.3587,-1.3586,-1.3586,-1.3401,-1.3397,-1.3392,0,0,0,0,0,0,0,0,0,0,0,0,0,-1.4137,-1.4133,-1.3884,-1.3881,-1.3879,-1.3702,-1.37,-1.3697,-1.3587,-1.3587,-1.3586,-1.3585,-1.3402,-1.3397,-1.3392,0,0,0,0,0,0,0,0,0,0,0,0,0,-1.3999,-1.4132,-1.3884,-1.3803,-1.3794,-1.3703,-1.37,-1.3697,-1.3587,-1.3587,-1.3586,-1.3585,-1.3404,-1.3398,-1.3391,-1.3367,0,0,-1.3371,-1.3368,0,0,0,0,0,0,0,0,-1.4007,-1.3989,-1.3817,-1.3808,-1.3798,-1.3666,-1.3721,-1.3586,-1.3588,-1.3666,-1.3586,-1.3585,-1.349,-1.3476,-1.3444,-1.3358,-1.335,-1.337,-1.3366,-1.3364,-1.3362,0,0,0,0,0,0,0,-1.4016,-1.3997,-1.3812,-1.3815,-1.3803,-1.3776,-1.3756,-1.3695,-1.3585,-1.3659,-1.365,-1.363,-1.3485,-1.3451,-1.3439,-1.3348,-1.3371,-1.3365,-1.3361,-1.3358,-1.3235,-1.3236,0,0,0,0,0,0,-1.4039,-1.4005,-1.3817,-1.3806,-1.3902,-1.3772,-1.3749,-1.3709,-1.3585,-1.3565,-1.3631,-1.3626,-1.3462,-1.3447,-1.3432,-1.3395,-1.3364,-1.3357,-1.3354,-1.3234,-1.3235,-1.3236,0,0,0,0,0,0,-1.4044,-1.4023,-1.3825,-1.3903,-1.3876,-1.3769,-1.3725,-1.3706,-1.3672,-1.3564,-1.3544,-1.3617,-1.3461,-1.3441,-1.3384,-1.3388,-1.3354,-1.3348,-1.3234,-1.3235,-1.3236,-1.3323,0,0,0,0,0,0,-1.4052,-1.4026,-1.4014,-1.3904,-1.3872,-1.3779,-1.3725,-1.3703,-1.3661,-1.3652,-1.3545,-1.3527,-1.3459,-1.3395,-1.3378,-1.3378,-1.3343,-1.3233,-1.3234,-1.3235,-1.3319,-1.3327,-1.3334,0,0,0,0,0,-1.4062,-1.4046,-1.4014,-1.3992,-1.3856,-1.378,-1.3761,-1.3683,-1.3662,-1.365,-1.3581,-1.353,-1.3391,-1.339,-1.337,-1.3368,-1.3232,-1.3234,-1.3235,-1.3316,-1.3325,-1.3333,0,0,0,0,0,0,-1.4159,-1.403,-1.3993,-1.3941,-1.3873,-1.3761,-1.3743,-1.3696,-1.3631,-1.3626,-1.3532,-1.3509,-1.3462,-1.3409,-1.341,-1.3339,-1.3306,-1.3304,-1.3374,-1.3382,-1.3389,-1.3402,-1.3338,0,0,0,0,0,-1.4175,-1.4123,-1.4013,-1.3978,-1.3946,-1.3851,-1.3815,-1.3761,-1.3686,-1.3656,-1.3583,-1.3512,-1.3452,-1.3415,-1.3354,-1.3313,-1.3288,-1.3302,-1.3309,-1.3316,-1.3314,-1.3289,-1.3294,-1.3241,-1.3241,-1.3241,0,0,-1.4205,-1.4129,-1.4102,-1.3996,-1.3936,-1.3885,-1.3827,-1.3775,-1.3737,-1.3648,-1.3589,-1.3534,-1.3449,-1.34,-1.3375,-1.3355,-1.3324,-1.3318,-1.3323,-1.3318,-1.3291,-1.3296,-1.3301,-1.3242,-1.3242,-1.3242,0,0,-1.4236,-1.4173,-1.4137,-1.4079,-1.399,-1.3927,-1.392,-1.3816,-1.3775,-1.3715,-1.3648,-1.3602,-1.3501,-1.3444,-1.3402,-1.3415,-1.3366,-1.3398,-1.3434,-1.3411,-1.3415,-1.3419,-1.3423,-1.3426,-1.3398,-1.3398,-1.3398,0,-1.4285,-1.4205,-1.4125,-1.4077,-1.4033,-1.3952,-1.3915,-1.3863,-1.3759,-1.3731,-1.3711,-1.3583,-1.3521,-1.3457,-1.3461,-1.343,-1.3418,-1.3408,-1.3421,-1.3424,-1.3425,-1.3429,-1.3431,-1.3402,-1.3402,-1.3401,-1.3401,0,-1.4271,-1.4217,-1.4199,-1.4101,-1.4055,-1.4014,-1.3928,-1.3891,-1.3843,-1.3784,-1.3725,-1.3648,-1.357,-1.3552,-1.3504,-1.3483,-1.3473,-1.3439,-1.3403,-1.3436,-1.3438,-1.3438,-1.3408,-1.3407,-1.3406,-1.3405,0,0,-1.4353,-1.4214,-1.4208,-1.4163,-1.4061,-1.4018,-1.3974,-1.3898,-1.3869,-1.3801,-1.3762,-1.3681,-1.3649,-1.3601,-1.3547,-1.3527,-1.3543,-1.3494,-1.3491,-1.3505,-1.3515,-1.354,-1.3543,-1.3511,-1.3511,-1.3511,-1.3522,0,-1.4367,-1.4283,-1.4211,-1.4154,-1.4104,-1.4028,-1.399,-1.3924,-1.3868,-1.3818,-1.3758,-1.3701,-1.3663,-1.3634,-1.3611,-1.3545,-1.3543,-1.3544,-1.3473,-1.3472,-1.3495,-1.3543,-1.3569,-1.3582,-1.3522,-1.3522,-1.3522,0,-1.4371,-1.4307,-1.4245,-1.415,-1.4126,-1.4093,-1.4019,-1.3972,-1.3897,-1.3858,-1.3807,-1.375,-1.3702,-1.3674,-1.3606,-1.3609,-1.3576,-1.354,-1.3539,-1.3527,-1.3497,-1.3532,-1.3585,-1.3587,-1.3522,-1.3522,-1.3522,0,-1.4437,-1.4335,-1.4285,-1.4249,-1.4137,-1.4116,-1.4068,-1.3991,-1.3951,-1.3888,-1.3861,-1.3793,-1.3755,-1.3705,-1.3632,-1.3618,-1.3573,-1.3538,-1.3539,-1.3541,-1.353,-1.3531,-1.3577,-1.3513,-1.3513,-1.3513,-1.3513,0,-1.4458,-1.4423,-1.4313,-1.4282,-1.4241,-1.416,-1.4122,-1.4068,-1.4002,-1.3959,-1.3891,-1.3853,-1.3761,-1.3712,-1.3656,-1.3609,-1.3593,-1.356,-1.3545,-1.3565,-1.3569,-1.354,-1.3537,-1.3514,-1.3514,-1.3513,-1.3513,0,-1.4523,-1.4448,-1.4388,-1.4288,-1.4262,-1.4236,-1.415,-1.4118,-1.4061,-1.4008,-1.3992,-1.3901,-1.3841,-1.3765,-1.368,-1.3642,-1.3601,-1.3579,-1.3626,-1.3617,-1.3622,-1.3622,-1.3649,-1.3649,-1.3588,-1.3589,-1.3589,0,-1.454,-1.4512,-1.4409,-1.4376,-1.4331,-1.4279,-1.4238,-1.4159,-1.4119,-1.4033,-1.4011,-1.3946,-1.3889,-1.3797,-1.3724,-1.366,-1.3635,-1.3649,-1.3625,-1.3646,-1.3634,-1.3635,-1.3632,-1.3655,-1.3656,-1.3657,-1.3657,0,-1.4579,-1.4545,-1.4488,-1.4421,-1.4374,-1.4317,-1.4256,-1.4233,-1.4142,-1.4101,-1.4039,-1.3995,-1.391,-1.3846,-1.3773,-1.3725,-1.3676,-1.3667,-1.3663,-1.3681,-1.3709,-1.3693,-1.3641,-1.3665,-1.3664,-1.3664,-1.3663,-1.3663,-1.4619,-1.4591,-1.4515,-1.4456,-1.4402,-1.4348,-1.4313,-1.4252,-1.4199,-1.4123,-1.408,-1.4019,-1.3947,-1.3844,-1.3798,-1.375,-1.3732,-1.3727,-1.3725,-1.3725,-1.3731,-1.372,-1.3737,-1.3737,-1.3737,-1.3736,-1.3736,0,-1.4654,-1.4602,-1.4549,-1.4467,-1.4421,-1.4381,-1.4312,-1.4276,-1.4224,-1.416,-1.4107,-1.4036,-1.3975,-1.3899,-1.3833,-1.3809,-1.3786,-1.3795,-1.3794,-1.3784,-1.3752,-1.376,-1.3815,-1.3815,-1.3815,-1.3815,-1.3815,-1.3815,-1.4666,-1.4616,-1.4573,-1.4497,-1.4445,-1.4385,-1.435,-1.43,-1.4249,-1.4173,-1.4122,-1.4073,-1.4005,-1.3934,-1.3877,-1.3856,-1.3835,-1.385,-1.3823,-1.3793,-1.3786,-1.378,-1.3787,-1.3847,-1.3847,-1.3859,-1.3859,-1.3859]},{"header":{"parameterUnit":"m.s-1","parameterCategory":1,"la1":30.2991,"la2":30.254,"lo1":-89.0895,"lo2":-89.0444,"dy":0.0017,"dx":0.0017,"nx":28,"ny":28,"refTime":"2023-10-06T09:00:00:Z","depth":0,"parameterNumber":3,"parameterNumberName":"V-component_of_WINDS"},"data":[0,0,0,0,0,0,0,0,0,0,0,0,0,0,0,0,0,0,0,0,0,0,0,0,0,0,0,0,0,0,0,0,0,0,0,0,0,0,0,0,0,0,0,0,0,0,0,0,0,0,0,0,0,0,0,0,0,0,-2.7336,-2.7337,0,-2.7442,-2.7443,-2.7445,-2.7519,-2.752,-2.752,-2.7521,-2.7617,-2.7619,-2.7621,0,0,0,0,0,0,0,0,0,0,0,0,0,-2.7187,-2.7189,-2.7336,-2.7337,-2.7339,-2.7442,-2.7443,-2.7445,-2.7519,-2.752,-2.7521,-2.7521,-2.7616,-2.7619,-2.7621,0,0,0,0,0,0,0,0,0,0,0,0,0,-2.7267,-2.719,-2.7336,-2.7389,-2.7394,-2.7442,-2.7443,-2.7445,-2.7519,-2.752,-2.7521,-2.7522,-2.7616,-2.7618,-2.7621,-2.7621,0,0,-2.763,-2.7632,0,0,0,0,0,0,0,0,-2.7263,-2.7273,-2.7379,-2.7385,-2.7392,-2.7469,-2.7426,-2.7504,-2.7519,-2.7471,-2.7521,-2.7522,-2.7566,-2.7573,-2.7591,-2.7625,-2.7629,-2.7631,-2.7632,-2.7634,-2.7635,0,0,0,0,0,0,0,-2.7257,-2.7269,-2.7378,-2.7381,-2.7388,-2.7403,-2.7416,-2.7441,-2.7511,-2.7475,-2.7481,-2.7493,-2.7569,-2.7588,-2.7593,-2.7631,-2.7631,-2.7633,-2.7635,-2.7636,-2.7671,-2.767,0,0,0,0,0,0,-2.7245,-2.7263,-2.7374,-2.7381,-2.7329,-2.7405,-2.7419,-2.7443,-2.7512,-2.7523,-2.7492,-2.7496,-2.7582,-2.759,-2.7597,-2.7601,-2.7634,-2.7636,-2.7638,-2.7671,-2.767,-2.7669,0,0,0,0,0,0,-2.7241,-2.7254,-2.737,-2.7324,-2.734,-2.7407,-2.7433,-2.7444,-2.7463,-2.7525,-2.7536,-2.7499,-2.7583,-2.7593,-2.7615,-2.7605,-2.7638,-2.7641,-2.7672,-2.7671,-2.767,-2.7609,0,0,0,0,0,0,-2.7237,-2.7252,-2.7255,-2.7324,-2.7342,-2.739,-2.7432,-2.7446,-2.7469,-2.7475,-2.7534,-2.7544,-2.7585,-2.7611,-2.7618,-2.761,-2.7643,-2.7674,-2.7672,-2.767,-2.7612,-2.7606,-2.76,0,0,0,0,0,-2.7231,-2.7231,-2.7255,-2.7268,-2.7348,-2.7389,-2.7399,-2.7449,-2.7468,-2.747,-2.751,-2.7542,-2.7606,-2.7612,-2.7622,-2.7614,-2.7674,-2.7672,-2.767,-2.7615,-2.7607,-2.76,0,0,0,0,0,0,-2.7154,-2.7241,-2.7268,-2.7291,-2.7333,-2.7402,-2.7405,-2.7439,-2.7473,-2.7477,-2.7534,-2.7546,-2.7562,-2.7591,-2.7596,-2.7617,-2.7644,-2.7644,-2.7598,-2.7592,-2.7586,-2.7578,-2.7645,0,0,0,0,0,-2.7141,-2.7171,-2.7243,-2.7256,-2.7276,-2.7337,-2.7357,-2.7393,-2.7436,-2.7453,-2.7494,-2.7532,-2.7561,-2.7578,-2.7607,-2.7617,-2.763,-2.7617,-2.7611,-2.7606,-2.7604,-2.7611,-2.7605,-2.7663,-2.7663,-2.7663,0,0,-2.7111,-2.7162,-2.7177,-2.7242,-2.7279,-2.7305,-2.7351,-2.7377,-2.7396,-2.7455,-2.748,-2.7512,-2.7558,-2.7574,-2.7583,-2.7598,-2.7591,-2.7603,-2.7599,-2.76,-2.7608,-2.7602,-2.7598,-2.7662,-2.7662,-2.7662,0,0,-2.7071,-2.7114,-2.713,-2.7167,-2.7224,-2.7265,-2.7269,-2.7334,-2.7358,-2.7386,-2.7431,-2.7452,-2.7501,-2.7532,-2.7554,-2.7529,-2.7559,-2.7536,-2.7504,-2.751,-2.7506,-2.7502,-2.7492,-2.7488,-2.7535,-2.7535,-2.7535,0,-2.7026,-2.7073,-2.7132,-2.7158,-2.7184,-2.7244,-2.7259,-2.729,-2.7351,-2.7366,-2.7383,-2.7447,-2.7481,-2.7506,-2.75,-2.7516,-2.752,-2.7529,-2.7503,-2.7499,-2.7496,-2.7487,-2.7483,-2.7532,-2.7532,-2.7532,-2.7533,0,-2.7014,-2.7045,-2.7051,-2.7114,-2.7142,-2.716,-2.722,-2.724,-2.7273,-2.7312,-2.7338,-2.7382,-2.7422,-2.7431,-2.7462,-2.746,-2.7467,-2.7493,-2.752,-2.7487,-2.7479,-2.7476,-2.7527,-2.7528,-2.7529,-2.753,0,0,-2.6925,-2.7026,-2.7026,-2.7056,-2.7125,-2.7148,-2.7169,-2.7213,-2.7228,-2.7269,-2.7286,-2.7327,-2.7352,-2.7377,-2.7412,-2.7417,-2.7394,-2.7442,-2.7444,-2.743,-2.7392,-2.7371,-2.7367,-2.7416,-2.7415,-2.7415,-2.7388,0,-2.6895,-2.6942,-2.6997,-2.7023,-2.7052,-2.7111,-2.7129,-2.717,-2.7207,-2.7234,-2.7273,-2.7301,-2.7332,-2.7347,-2.7356,-2.7395,-2.7386,-2.7398,-2.7428,-2.7429,-2.7414,-2.7363,-2.7341,-2.7313,-2.7385,-2.7385,-2.7385,0,-2.6865,-2.6909,-2.6938,-2.7007,-2.7021,-2.7037,-2.7082,-2.7108,-2.7156,-2.7182,-2.7212,-2.7251,-2.7273,-2.7299,-2.7329,-2.7335,-2.7351,-2.7372,-2.7373,-2.7375,-2.7403,-2.7362,-2.7306,-2.73,-2.7381,-2.7381,-2.7381,0,-2.6796,-2.6861,-2.6889,-2.6913,-2.6993,-2.7002,-2.7035,-2.7085,-2.7108,-2.7147,-2.7162,-2.72,-2.722,-2.7248,-2.7295,-2.731,-2.7319,-2.7349,-2.7338,-2.7337,-2.7335,-2.7334,-2.7278,-2.7348,-2.7349,-2.7349,-2.7349,0,-2.6755,-2.677,-2.6859,-2.6875,-2.6894,-2.6957,-2.6972,-2.701,-2.7054,-2.7075,-2.7127,-2.7145,-2.7209,-2.7233,-2.727,-2.7288,-2.7297,-2.7316,-2.7325,-2.731,-2.7308,-2.7319,-2.7322,-2.7348,-2.7348,-2.7348,-2.7348,0,-2.668,-2.674,-2.6774,-2.6849,-2.6868,-2.6878,-2.694,-2.6956,-2.6998,-2.7025,-2.7034,-2.7097,-2.7129,-2.7181,-2.7226,-2.7251,-2.7261,-2.7278,-2.7246,-2.7251,-2.7237,-2.7236,-2.7184,-2.718,-2.7255,-2.7254,-2.7253,0,-2.6648,-2.6663,-2.6742,-2.6763,-2.6796,-2.6828,-2.6854,-2.6916,-2.694,-2.6997,-2.7005,-2.7043,-2.7076,-2.7123,-2.717,-2.7205,-2.7222,-2.7202,-2.7227,-2.7212,-2.7219,-2.7217,-2.7218,-2.7194,-2.7193,-2.7192,-2.7191,0,-2.6586,-2.6617,-2.6655,-2.6704,-2.6735,-2.6774,-2.6816,-2.6829,-2.69,-2.6923,-2.696,-2.6986,-2.7035,-2.707,-2.7112,-2.7141,-2.7176,-2.7184,-2.7183,-2.7166,-2.7147,-2.7155,-2.7228,-2.7184,-2.7185,-2.7185,-2.7186,-2.7186,-2.6531,-2.6547,-2.6606,-2.6646,-2.6686,-2.6725,-2.6745,-2.6791,-2.6824,-2.6872,-2.6906,-2.6939,-2.6987,-2.7048,-2.7076,-2.71,-2.7116,-2.7114,-2.7114,-2.7112,-2.7105,-2.7146,-2.7108,-2.7108,-2.7109,-2.7109,-2.7109,0,-2.647,-2.6512,-2.655,-2.661,-2.6641,-2.6679,-2.6728,-2.6749,-2.678,-2.6824,-2.6858,-2.6898,-2.6933,-2.6985,-2.7023,-2.7032,-2.7049,-2.704,-2.7038,-2.7044,-2.709,-2.7087,-2.7025,-2.7025,-2.7025,-2.7025,-2.7025,-2.7025,-2.6442,-2.6471,-2.6509,-2.6557,-2.6598,-2.6636,-2.666,-2.6695,-2.6731,-2.6776,-2.6808,-2.6843,-2.6889,-2.6932,-2.6964,-2.6978,-2.6988,-2.6973,-2.6991,-2.7033,-2.704,-2.7048,-2.7045,-2.6975,-2.6975,-2.6943,-2.6942,-2.6942]}]]